[[{"header":{"parameterUnit":"m.s-1","parameterCategory":1,"la1":30.2991,"la2":30.254,"lo1":-89.0895,"lo2":-89.0444,"dy":0.0017,"dx":0.0017,"nx":28,"ny":28,"refTime":"2023-10-27T21:00:00:Z","depth":0,"parameterNumber":2,"parameterNumberName":"U-component_of_WINDS"},"data":[0,0,0,0,0,0,0,0,0,0,0,0,0,0,0,0,0,0,0,0,0,0,0,0,0,0,0,0,0,0,0,0,0,0,0,0,0,0,0,0,0,0,0,0,0,0,0,0,0,0,0,0,0,0,0,0,0,0,-2.5921,-2.5921,0,-2.5954,-2.5954,-2.5954,-2.5901,-2.5899,-2.5897,-2.5895,-2.5933,-2.5936,-2.5938,0,0,0,0,0,0,0,0,0,0,0,0,0,-2.5817,-2.582,-2.5921,-2.5921,-2.5922,-2.5954,-2.5954,-2.5954,-2.5901,-2.5899,-2.5896,-2.5894,-2.5932,-2.5935,-2.5938,0,0,0,0,0,0,0,0,0,0,0,0,0,-2.5858,-2.582,-2.5921,-2.5899,-2.5897,-2.5953,-2.5954,-2.5955,-2.5901,-2.5899,-2.5896,-2.5893,-2.5931,-2.5935,-2.5939,-2.602,0,0,-2.5951,-2.5953,0,0,0,0,0,0,0,0,-2.5855,-2.5861,-2.5902,-2.59,-2.5899,-2.592,-2.5931,-2.5977,-2.5902,-2.59,-2.5895,-2.5892,-2.5931,-2.5935,-2.5947,-2.6021,-2.6023,-2.5952,-2.5954,-2.5956,-2.5957,0,0,0,0,0,0,0,-2.5853,-2.586,-2.5934,-2.5902,-2.5901,-2.5889,-2.5892,-2.594,-2.5931,-2.59,-2.5896,-2.59,-2.593,-2.5944,-2.5948,-2.6024,-2.5952,-2.5955,-2.5958,-2.5959,-2.6167,-2.617,0,0,0,0,0,0,-2.5852,-2.5858,-2.5933,-2.5935,-2.587,-2.5893,-2.5896,-2.5916,-2.593,-2.593,-2.5903,-2.5898,-2.5938,-2.5943,-2.5949,-2.6045,-2.5956,-2.596,-2.5962,-2.6164,-2.6168,-2.6171,0,0,0,0,0,0,-2.585,-2.5859,-2.5932,-2.5895,-2.5904,-2.5898,-2.5921,-2.5918,-2.5932,-2.5932,-2.5931,-2.5918,-2.5936,-2.5943,-2.6002,-2.6045,-2.5962,-2.5965,-2.6161,-2.6165,-2.617,-2.6237,0,0,0,0,0,0,-2.5847,-2.5859,-2.5888,-2.5896,-2.5906,-2.5983,-2.5923,-2.5921,-2.5938,-2.5932,-2.5946,-2.5946,-2.5934,-2.5997,-2.6007,-2.6049,-2.5969,-2.6157,-2.6163,-2.6168,-2.6231,-2.6243,-2.6254,0,0,0,0,0,-2.5844,-2.5906,-2.589,-2.5899,-2.5942,-2.5986,-2.5991,-2.5975,-2.5942,-2.5972,-2.5973,-2.5945,-2.6039,-2.6003,-2.6014,-2.6059,-2.6154,-2.6161,-2.6168,-2.6226,-2.6241,-2.6254,0,0,0,0,0,0,-2.5904,-2.5907,-2.5888,-2.5955,-2.597,-2.5976,-2.6013,-2.5992,-2.6018,-2.6011,-2.5992,-2.5996,-2.6059,-2.6065,-2.6025,-2.6138,-2.6091,-2.6101,-2.6132,-2.6146,-2.6157,-2.6154,-2.5972,0,0,0,0,0,-2.5925,-2.5958,-2.596,-2.6019,-2.6027,-2.602,-2.6038,-2.6024,-2.604,-2.6047,-2.6051,-2.6069,-2.6102,-2.6125,-2.6156,-2.6232,-2.6235,-2.6268,-2.628,-2.6289,-2.6297,-2.634,-2.6355,-2.6194,-2.6194,-2.6194,0,0,-2.5968,-2.5974,-2.5997,-2.6031,-2.6041,-2.6078,-2.6025,-2.6066,-2.6094,-2.6053,-2.6109,-2.6114,-2.6132,-2.6201,-2.6231,-2.6207,-2.6343,-2.6298,-2.6306,-2.6309,-2.6348,-2.6363,-2.6377,-2.6199,-2.6198,-2.6197,0,0,-2.6066,-2.6074,-2.6124,-2.6135,-2.6151,-2.6146,-2.6158,-2.6168,-2.6169,-2.6225,-2.6196,-2.623,-2.6287,-2.6302,-2.6317,-2.6423,-2.6399,-2.6434,-2.6494,-2.6535,-2.6548,-2.6559,-2.6597,-2.6611,-2.6443,-2.6443,-2.6443,0,-2.6118,-2.6171,-2.6153,-2.6196,-2.6212,-2.6177,-2.6229,-2.6241,-2.6267,-2.628,-2.6254,-2.6326,-2.6336,-2.6408,-2.6434,-2.6448,-2.6462,-2.6432,-2.6547,-2.6558,-2.6568,-2.6605,-2.6619,-2.6447,-2.6446,-2.6446,-2.6446,0,-2.6235,-2.6272,-2.6311,-2.6336,-2.6357,-2.6405,-2.6395,-2.6419,-2.6405,-2.6404,-2.6462,-2.6473,-2.6506,-2.6522,-2.6509,-2.6593,-2.6578,-2.655,-2.6502,-2.6588,-2.6622,-2.6636,-2.6453,-2.6451,-2.645,-2.6449,0,0,-2.6369,-2.6384,-2.6399,-2.641,-2.6427,-2.6456,-2.6503,-2.6534,-2.6555,-2.6576,-2.6615,-2.6666,-2.664,-2.6658,-2.6646,-2.6683,-2.6767,-2.665,-2.665,-2.6671,-2.6861,-2.6882,-2.6898,-2.6752,-2.6755,-2.6757,-2.686,0,-2.6466,-2.6545,-2.6531,-2.6608,-2.6643,-2.6612,-2.6653,-2.6669,-2.6669,-2.6701,-2.6702,-2.6738,-2.6701,-2.6712,-2.6746,-2.6749,-2.6805,-2.6742,-2.679,-2.6792,-2.6785,-2.6915,-2.6937,-2.7033,-2.6873,-2.6875,-2.6877,0,-2.6589,-2.6613,-2.6693,-2.6705,-2.672,-2.6756,-2.6785,-2.6815,-2.6833,-2.6831,-2.6851,-2.6834,-2.6883,-2.6836,-2.6904,-2.6861,-2.6881,-2.6886,-2.6889,-2.6892,-2.6838,-2.6921,-2.7063,-2.7078,-2.6897,-2.6895,-2.6894,0,-2.6679,-2.6731,-2.6786,-2.6797,-2.6812,-2.6839,-2.6847,-2.6863,-2.6883,-2.6909,-2.6922,-2.6954,-2.6971,-2.6997,-2.699,-2.6956,-2.706,-2.7012,-2.7061,-2.7061,-2.7083,-2.7081,-2.7229,-2.7097,-2.7097,-2.7096,-2.7096,0,-2.6788,-2.6838,-2.6827,-2.686,-2.6917,-2.6902,-2.6959,-2.6963,-2.6978,-2.7013,-2.6989,-2.7024,-2.7012,-2.7047,-2.7042,-2.7099,-2.7108,-2.7108,-2.7106,-2.711,-2.711,-2.7121,-2.7114,-2.71,-2.7099,-2.7099,-2.7098,0,-2.6896,-2.6891,-2.6948,-2.6959,-2.6963,-2.7004,-2.7013,-2.7046,-2.7046,-2.7091,-2.7101,-2.7101,-2.7141,-2.7136,-2.7181,-2.7177,-2.7249,-2.7239,-2.7242,-2.724,-2.7289,-2.7284,-2.7448,-2.7469,-2.7325,-2.7326,-2.7327,0,-2.6966,-2.7004,-2.7018,-2.704,-2.7049,-2.7084,-2.7105,-2.7093,-2.7116,-2.714,-2.7171,-2.7208,-2.7236,-2.7302,-2.7307,-2.7341,-2.7332,-2.7387,-2.7337,-2.734,-2.7333,-2.733,-2.7334,-2.7397,-2.7399,-2.74,-2.7401,0,-2.7089,-2.7085,-2.7114,-2.7144,-2.7169,-2.7192,-2.7212,-2.7232,-2.7222,-2.725,-2.7289,-2.7311,-2.7357,-2.7395,-2.7428,-2.7438,-2.7419,-2.7417,-2.743,-2.7434,-2.7433,-2.7434,-2.7268,-2.7413,-2.7412,-2.7411,-2.741,-2.741,-2.718,-2.7213,-2.7228,-2.7262,-2.7277,-2.7297,-2.7328,-2.7332,-2.7364,-2.7399,-2.7391,-2.7436,-2.7456,-2.7498,-2.7512,-2.7549,-2.7529,-2.7548,-2.7552,-2.7557,-2.7563,-2.7429,-2.7555,-2.7555,-2.7554,-2.7554,-2.7554,0,-2.7302,-2.7311,-2.7343,-2.7372,-2.74,-2.7378,-2.7401,-2.7426,-2.7465,-2.7484,-2.7513,-2.756,-2.7597,-2.7606,-2.7642,-2.767,-2.7662,-2.768,-2.7677,-2.768,-2.7578,-2.7563,-2.7685,-2.7685,-2.7685,-2.7685,-2.7685,-2.7685,-2.7368,-2.7423,-2.7421,-2.7483,-2.7492,-2.7534,-2.7549,-2.7569,-2.7584,-2.7636,-2.7667,-2.7672,-2.7688,-2.7725,-2.7759,-2.7761,-2.7775,-2.7797,-2.7795,-2.77,-2.7687,-2.7674,-2.766,-2.78,-2.78,-2.7893,-2.7894,-2.7895]},{"header":{"parameterUnit":"m.s-1","parameterCategory":1,"la1":30.2991,"la2":30.254,"lo1":-89.0895,"lo2":-89.0444,"dy":0.0017,"dx":0.0017,"nx":28,"ny":28,"refTime":"2023-10-27T21:00:00:Z","depth":0,"parameterNumber":3,"parameterNumberName":"V-component_of_WINDS"},"data":[0,0,0,0,0,0,0,0,0,0,0,0,0,0,0,0,0,0,0,0,0,0,0,0,0,0,0,0,0,0,0,0,0,0,0,0,0,0,0,0,0,0,0,0,0,0,0,0,0,0,0,0,0,0,0,0,0,0,0.7432,0.7431,0,0.738,0.738,0.7379,0.7465,0.7468,0.7471,0.7473,0.7417,0.7413,0.7408,0,0,0,0,0,0,0,0,0,0,0,0,0,0.7602,0.7599,0.7432,0.7431,0.7431,0.7381,0.738,0.7379,0.7464,0.7468,0.7471,0.7475,0.7418,0.7413,0.7408,0,0,0,0,0,0,0,0,0,0,0,0,0,0.7537,0.7598,0.7432,0.7467,0.747,0.7381,0.738,0.7379,0.7463,0.7468,0.7472,0.7476,0.742,0.7414,0.7407,0.728,0,0,0.7388,0.7385,0,0,0,0,0,0,0,0,0.7541,0.7531,0.7463,0.7465,0.7467,0.7434,0.7419,0.7346,0.7462,0.7466,0.7473,0.7478,0.7419,0.7413,0.7393,0.7278,0.7275,0.7387,0.7384,0.7381,0.7379,0,0,0,0,0,0,0,0.7545,0.7533,0.7412,0.7462,0.7464,0.7485,0.7481,0.7406,0.7418,0.7466,0.7472,0.7465,0.7421,0.7399,0.7392,0.7275,0.7388,0.7382,0.7378,0.7376,0.7055,0.705,0,0,0,0,0,0,0.7546,0.7537,0.7413,0.741,0.7516,0.7478,0.7473,0.744,0.7419,0.742,0.7461,0.7469,0.7408,0.74,0.7391,0.7242,0.7381,0.7375,0.7371,0.7059,0.7054,0.7049,0,0,0,0,0,0,0.7549,0.7534,0.7415,0.7475,0.7462,0.7471,0.7432,0.7437,0.7415,0.7416,0.7418,0.7437,0.7411,0.74,0.7308,0.7241,0.7372,0.7366,0.7065,0.7058,0.7051,0.6942,0,0,0,0,0,0,0.7554,0.7535,0.7486,0.7473,0.7458,0.7333,0.7428,0.7432,0.7404,0.7414,0.7394,0.7394,0.7413,0.7317,0.7302,0.7235,0.7361,0.7071,0.7062,0.7053,0.6952,0.6932,0.6915,0,0,0,0,0,0.7559,0.7457,0.7484,0.7468,0.7398,0.7329,0.732,0.7346,0.7399,0.735,0.7351,0.7395,0.7251,0.7307,0.729,0.722,0.7075,0.7064,0.7054,0.696,0.6936,0.6916,0,0,0,0,0,0,0.746,0.7455,0.7485,0.7375,0.7352,0.7344,0.7283,0.7319,0.7279,0.729,0.7322,0.7317,0.7219,0.7211,0.7273,0.7098,0.7172,0.7158,0.7106,0.7083,0.7066,0.7069,0.7356,0,0,0,0,0,0.7425,0.737,0.7369,0.7272,0.726,0.7273,0.7244,0.7266,0.7243,0.7233,0.7227,0.7202,0.7152,0.7117,0.7071,0.6952,0.6949,0.6896,0.6878,0.6863,0.6849,0.6787,0.6764,0.7014,0.7014,0.7014,0,0,0.7353,0.7344,0.7307,0.7252,0.7237,0.7179,0.7264,0.7199,0.7156,0.7223,0.7136,0.7131,0.7105,0.7,0.6953,0.699,0.678,0.6849,0.6837,0.6832,0.6774,0.675,0.6729,0.7006,0.7008,0.7009,0,0,0.7191,0.7179,0.7097,0.7081,0.7057,0.7068,0.7048,0.7035,0.7035,0.6949,0.6998,0.6948,0.686,0.684,0.6818,0.6652,0.6691,0.6636,0.6541,0.648,0.646,0.6443,0.6384,0.6362,0.6623,0.6623,0.6623,0,0.7103,0.7019,0.705,0.6982,0.6957,0.7017,0.6935,0.6917,0.6879,0.686,0.6903,0.6796,0.6782,0.6674,0.6633,0.6614,0.6593,0.6638,0.6461,0.6444,0.6428,0.6372,0.635,0.6617,0.6617,0.6618,0.6619,0,0.6912,0.6853,0.679,0.6754,0.6722,0.6647,0.6667,0.6631,0.6656,0.6662,0.6575,0.6562,0.6514,0.6491,0.6514,0.6385,0.6409,0.6456,0.6531,0.6397,0.6345,0.6324,0.6607,0.661,0.6612,0.6613,0,0,0.6683,0.6668,0.6644,0.663,0.661,0.6564,0.6492,0.6448,0.6416,0.6389,0.6329,0.6255,0.6299,0.6274,0.6296,0.6243,0.6113,0.6296,0.6296,0.6262,0.5971,0.5936,0.5911,0.614,0.6136,0.6133,0.5974,0,0.6523,0.64,0.6428,0.6307,0.6253,0.6311,0.6249,0.623,0.6234,0.6188,0.6193,0.614,0.6202,0.6188,0.6137,0.6139,0.6055,0.6151,0.6084,0.6081,0.6088,0.5883,0.5845,0.5696,0.5953,0.595,0.5948,0,0.6318,0.6285,0.6159,0.615,0.6128,0.6071,0.6034,0.599,0.597,0.5977,0.5951,0.5984,0.5914,0.5991,0.5894,0.5959,0.5934,0.5931,0.5926,0.5919,0.6005,0.5871,0.5648,0.5626,0.5916,0.5918,0.5921,0,0.6164,0.6088,0.6003,0.5988,0.5975,0.5934,0.5927,0.5912,0.5884,0.5851,0.5833,0.5792,0.5769,0.5736,0.5758,0.5812,0.5657,0.5736,0.5661,0.566,0.5624,0.5626,0.5393,0.5609,0.5609,0.5609,0.561,0,0.5981,0.5901,0.5934,0.5881,0.5794,0.5828,0.5741,0.574,0.5726,0.5675,0.5722,0.5673,0.5705,0.5658,0.5674,0.5592,0.5581,0.5584,0.5589,0.5579,0.5579,0.5562,0.5573,0.5604,0.5605,0.5606,0.5607,0,0.5792,0.5811,0.5723,0.5719,0.5716,0.5652,0.5649,0.56,0.561,0.5544,0.553,0.5544,0.5492,0.5511,0.5454,0.5465,0.536,0.5379,0.5367,0.5372,0.5295,0.5302,0.5043,0.5011,0.5247,0.5245,0.5243,0,0.5674,0.5615,0.5605,0.5575,0.5565,0.5515,0.5488,0.5519,0.5488,0.5463,0.5417,0.537,0.5333,0.5247,0.5251,0.5209,0.5226,0.5139,0.522,0.5213,0.5225,0.5228,0.5222,0.5122,0.5119,0.5117,0.5115,0,0.5461,0.5474,0.5434,0.5396,0.5363,0.5334,0.531,0.5283,0.5313,0.5276,0.5224,0.5196,0.514,0.5092,0.5055,0.5047,0.5085,0.509,0.507,0.5059,0.5054,0.5056,0.5322,0.5095,0.5097,0.5099,0.51,0.5101,0.5304,0.5255,0.5241,0.5194,0.518,0.5157,0.5112,0.5117,0.5075,0.5032,0.5054,0.4993,0.4977,0.4931,0.4918,0.4871,0.4905,0.4876,0.4869,0.4861,0.4851,0.5063,0.4865,0.4865,0.4866,0.4866,0.4867,0,0.5094,0.5089,0.5046,0.5012,0.4976,0.5018,0.4994,0.4961,0.4908,0.489,0.4854,0.4795,0.4749,0.4751,0.4709,0.4672,0.4689,0.466,0.4662,0.466,0.4823,0.4845,0.4647,0.4647,0.4647,0.4647,0.4647,0.4647,0.498,0.4899,0.4911,0.4824,0.4819,0.4762,0.4745,0.4724,0.471,0.4643,0.4606,0.4609,0.4599,0.4557,0.4517,0.452,0.4501,0.4466,0.4474,0.4626,0.4648,0.4669,0.4689,0.4462,0.4461,0.4314,0.4313,0.4312]}]]